Time,TemperatureF,DewpointF,PressureIn,WindDirection,WindDirectionDegrees,WindSpeedMPH,WindSpeedGustMPH,Humidity,HourlyPrecipIn,Conditions,Clouds,dailyrainin,SoftwareType,DateUTC
2013-02-15 00:02:00,39.0,35.0,-100.00,WSW,241,0.0,0.0,84,0.00,,,0.13,,2013-02-15 06:02:00,
2013-02-15 00:11:00,39.0,35.0,-100.00,WSW,241,0.0,0.0,84,0.00,,,0.13,,2013-02-15 06:11:00,
2013-02-15 00:21:00,39.0,35.0,-100.00,WSW,241,0.0,0.0,84,0.00,,,0.13,,2013-02-15 06:21:00,
2013-02-15 00:31:00,38.0,34.0,-100.00,WSW,241,0.0,0.0,84,0.00,,,0.13,,2013-02-15 06:31:00,
2013-02-15 00:42:00,38.0,34.0,-100.00,WSW,241,0.0,0.0,84,0.00,,,0.13,,2013-02-15 06:42:00,
2013-02-15 00:52:00,38.0,34.0,-100.00,WSW,241,0.0,0.0,86,0.00,,,0.13,,2013-02-15 06:52:00,
2013-02-15 01:01:00,37.0,34.0,29.31,WSW,241,0.0,0.0,87,0.00,,,0.13,,2013-02-15 07:01:00,
2013-02-15 01:11:00,37.0,34.0,29.31,WSW,241,0.0,0.0,87,0.00,,,0.13,,2013-02-15 07:11:00,
2013-02-15 01:21:00,37.0,34.0,6.54,WSW,241,0.0,0.0,88,0.00,,,0.13,,2013-02-15 07:21:00,
2013-02-15 01:31:00,37.0,34.0,3.31,WSW,241,0.0,0.0,88,0.00,,,0.13,,2013-02-15 07:31:00,
2013-02-15 01:41:00,37.0,34.0,3.31,WSW,241,0.0,0.0,88,0.00,,,0.13,,2013-02-15 07:41:00,
2013-02-15 01:52:00,37.0,34.0,3.30,WSW,241,0.0,0.0,88,0.00,,,0.13,,2013-02-15 07:52:00,
2013-02-15 02:01:00,36.0,33.0,3.15,WSW,241,0.0,0.0,89,0.00,,,0.13,,2013-02-15 08:01:00,
2013-02-15 02:11:00,36.0,33.0,3.15,WSW,241,0.0,0.0,89,0.00,,,0.13,,2013-02-15 08:11:00,
2013-02-15 02:21:00,36.0,33.0,3.30,WSW,241,0.0,0.0,90,0.00,,,0.13,,2013-02-15 08:21:00,
2013-02-15 02:31:00,36.0,33.0,3.30,WSW,241,0.0,0.0,90,0.00,,,0.13,,2013-02-15 08:31:00,
2013-02-15 02:41:00,36.0,33.0,3.30,WSW,241,0.0,0.0,90,0.00,,,0.13,,2013-02-15 08:41:00,
2013-02-15 02:53:00,36.0,33.0,3.30,WSW,241,0.0,0.0,90,0.00,,,0.13,,2013-02-15 08:53:00,
2013-02-15 03:01:00,36.0,33.0,26.72,WSW,241,0.0,0.0,90,0.00,,,0.13,,2013-02-15 09:01:00,
2013-02-15 03:12:00,36.0,33.0,26.72,WSW,241,0.0,0.0,90,0.00,,,0.13,,2013-02-15 09:12:00,
2013-02-15 03:21:00,36.0,33.0,3.30,WSW,241,0.0,1.0,90,0.00,,,0.12,,2013-02-15 09:21:00,
2013-02-15 03:32:00,35.0,33.0,3.30,WSW,241,0.0,0.0,91,0.00,,,0.12,,2013-02-15 09:32:00,
2013-02-15 03:41:00,35.0,33.0,3.30,WSW,241,0.0,0.0,91,0.00,,,0.12,,2013-02-15 09:41:00,
2013-02-15 03:52:00,35.0,33.0,3.30,WSW,241,0.0,0.0,91,0.00,,,0.12,,2013-02-15 09:52:00,
2013-02-15 04:01:00,35.0,33.0,3.30,WSW,241,0.0,0.0,91,0.00,,,0.12,,2013-02-15 10:01:00,
2013-02-15 04:11:00,35.0,33.0,3.30,WSW,241,0.0,0.0,91,0.00,,,0.12,,2013-02-15 10:11:00,
2013-02-15 04:21:00,35.0,33.0,3.30,WSW,241,0.0,0.0,92,0.00,,,0.12,,2013-02-15 10:21:00,
2013-02-15 04:31:00,35.0,33.0,3.30,WSW,241,0.0,0.0,92,0.00,,,0.12,,2013-02-15 10:31:00,
2013-02-15 04:41:00,35.0,33.0,3.30,WSW,241,0.0,0.0,92,0.00,,,0.12,,2013-02-15 10:41:00,
2013-02-15 04:52:00,35.0,33.0,3.30,WSW,241,0.0,0.0,92,0.00,,,0.12,,2013-02-15 10:52:00,
2013-02-15 05:01:00,35.0,33.0,3.30,WSW,241,0.0,1.0,93,0.00,,,0.12,,2013-02-15 11:01:00,
2013-02-15 05:11:00,35.0,33.0,3.30,WSW,241,0.0,1.0,93,0.00,,,0.12,,2013-02-15 11:11:00,
2013-02-15 05:22:00,35.0,33.0,3.30,WSW,241,0.0,0.0,93,0.00,,,0.12,,2013-02-15 11:22:00,
2013-02-15 05:31:00,35.0,33.0,3.30,WSW,241,0.0,0.0,93,0.00,,,0.12,,2013-02-15 11:31:00,
2013-02-15 05:42:00,35.0,33.0,3.30,WSW,241,0.0,0.0,93,0.00,,,0.12,,2013-02-15 11:42:00,
2013-02-15 05:52:00,35.0,33.0,3.30,WSW,241,0.0,0.0,93,0.00,,,0.12,,2013-02-15 11:52:00,
2013-02-15 06:01:00,35.0,33.0,3.30,WSW,241,0.0,1.0,93,0.00,,,0.12,,2013-02-15 12:01:00,
2013-02-15 06:11:00,35.0,33.0,3.30,WSW,241,0.0,1.0,93,0.00,,,0.12,,2013-02-15 12:11:00,
2013-02-15 06:21:00,35.0,33.0,3.30,WSW,241,0.0,1.0,93,0.00,,,0.12,,2013-02-15 12:21:00,
2013-02-15 06:32:00,36.0,34.0,3.30,SSW,198,0.0,2.0,93,0.00,,,0.12,,2013-02-15 12:32:00,
2013-02-15 06:42:00,36.0,34.0,3.30,SSW,198,0.0,2.0,93,0.00,,,0.12,,2013-02-15 12:42:00,
2013-02-15 06:52:00,36.0,34.0,3.30,North,360,0.0,3.0,93,0.00,,,0.12,,2013-02-15 12:52:00,
2013-02-15 07:02:00,37.0,35.0,3.30,South,175,0.0,1.0,93,0.00,,,0.12,,2013-02-15 13:02:00,
2013-02-15 07:11:00,37.0,35.0,3.30,South,175,0.0,1.0,93,0.00,,,0.12,,2013-02-15 13:11:00,
2013-02-15 07:21:00,37.0,35.0,3.30,South,175,0.0,1.0,93,0.00,,,0.12,,2013-02-15 13:21:00,
2013-02-15 07:32:00,37.0,35.0,3.30,ESE,111,0.0,4.0,94,0.00,,,0.12,,2013-02-15 13:32:00,
2013-02-15 07:41:00,37.0,35.0,3.30,ESE,111,0.0,4.0,94,0.00,,,0.12,,2013-02-15 13:41:00,
2013-02-15 07:52:00,39.0,37.0,3.30,South,178,0.0,3.0,94,0.00,,,0.12,,2013-02-15 13:52:00,
2013-02-15 08:01:00,41.0,39.0,3.30,SSW,195,0.0,2.0,92,0.00,,,0.12,,2013-02-15 14:01:00,
2013-02-15 08:11:00,41.0,39.0,3.30,SSW,195,0.0,2.0,92,0.00,,,0.12,,2013-02-15 14:11:00,
2013-02-15 08:21:00,42.0,39.0,3.30,SW,220,1.0,4.0,88,0.00,,,0.11,,2013-02-15 14:21:00,
2013-02-15 08:32:00,44.0,40.0,3.30,SSW,202,1.0,4.0,85,0.00,,,0.11,,2013-02-15 14:32:00,
2013-02-15 08:41:00,44.0,40.0,3.30,SSW,202,1.0,4.0,85,0.00,,,0.11,,2013-02-15 14:41:00,
2013-02-15 08:52:00,44.0,39.0,3.30,WSW,243,1.0,5.0,84,0.00,,,0.11,,2013-02-15 14:52:00,
2013-02-15 09:01:00,45.0,40.0,1.83,WSW,254,1.0,5.0,84,0.00,,,0.11,,2013-02-15 15:01:00,
2013-02-15 09:11:00,45.0,40.0,1.83,WSW,254,1.0,5.0,84,0.00,,,0.11,,2013-02-15 15:11:00,
2013-02-15 09:21:00,46.0,41.0,3.25,West,277,1.0,5.0,82,0.00,,,0.01,,2013-02-15 15:21:00,
2013-02-15 09:32:00,47.0,42.0,3.30,West,270,1.0,7.0,82,0.00,,,0.01,,2013-02-15 15:32:00,
2013-02-15 09:42:00,48.0,42.0,-100.00,NNE,32,0.0,6.0,80,0.00,,,0.01,,2013-02-15 15:42:00,
2013-02-15 09:52:00,48.0,42.0,-100.00,NNE,32,0.0,6.0,80,0.00,,,0.01,,2013-02-15 15:52:00,
2013-02-15 10:01:00,49.0,43.0,-100.00,NNW,331,2.0,7.0,79,0.00,,,0.01,,2013-02-15 16:01:00,
2013-02-15 10:11:00,49.0,43.0,-100.00,NNW,331,2.0,7.0,79,0.00,,,0.01,,2013-02-15 16:11:00,
2013-02-15 10:22:00,50.0,43.0,-100.00,West,274,0.0,4.0,78,0.00,,,0.00,,2013-02-15 16:22:00,
2013-02-15 10:32:00,52.0,43.0,-100.00,WNW,300,2.0,6.0,72,0.00,,,0.00,,2013-02-15 16:32:00,
2013-02-15 10:42:00,52.0,43.0,-100.00,WNW,300,2.0,6.0,72,0.00,,,0.00,,2013-02-15 16:42:00,
2013-02-15 10:52:00,52.0,44.0,2.94,WSW,250,0.0,6.0,73,0.00,,,0.00,,2013-02-15 16:52:00,
2013-02-15 11:01:00,53.0,43.0,-100.00,WNW,289,2.0,6.0,68,0.00,,,0.00,,2013-02-15 17:01:00,
2013-02-15 11:11:00,54.0,43.0,-100.00,West,270,0.0,6.0,67,0.00,,,0.00,,2013-02-15 17:11:00,
2013-02-15 11:21:00,54.0,43.0,-100.00,West,270,0.0,6.0,67,0.00,,,0.00,,2013-02-15 17:21:00,
2013-02-15 11:32:00,55.0,42.0,-100.00,West,271,1.0,6.0,61,0.00,,,0.00,,2013-02-15 17:32:00,
2013-02-15 11:41:00,55.0,42.0,-100.00,West,271,1.0,6.0,61,0.00,,,0.00,,2013-02-15 17:41:00,
2013-02-15 11:52:00,56.0,41.0,-100.00,WNW,295,3.0,8.0,58,0.00,,,0.00,,2013-02-15 17:52:00,
2013-02-15 12:01:00,58.0,42.0,-100.00,NE,46,3.0,5.0,55,0.00,,,0.00,,2013-02-15 18:01:00,
2013-02-15 12:11:00,58.0,42.0,-100.00,NE,46,3.0,5.0,55,0.00,,,0.00,,2013-02-15 18:11:00,
2013-02-15 12:21:00,57.0,41.0,-100.00,WNW,282,3.0,8.0,55,0.00,,,0.00,,2013-02-15 18:21:00,
2013-02-15 12:31:00,56.0,40.0,18.84,WNW,289,3.0,9.0,54,0.00,,,0.00,,2013-02-15 18:31:00,
2013-02-15 12:42:00,56.0,40.0,18.84,WNW,289,3.0,9.0,54,0.00,,,0.00,,2013-02-15 18:42:00,
2013-02-15 12:52:00,57.0,41.0,-100.00,WNW,293,3.0,12.0,54,0.00,,,0.00,,2013-02-15 18:52:00,
2013-02-15 13:01:00,57.0,41.0,25.63,West,261,3.0,8.0,54,0.00,,,0.00,,2013-02-15 19:01:00,
2013-02-15 13:11:00,57.0,41.0,25.63,West,261,3.0,8.0,54,0.00,,,0.00,,2013-02-15 19:11:00,
2013-02-15 13:22:00,57.0,41.0,-100.00,North,5,1.0,7.0,55,0.00,,,0.00,,2013-02-15 19:22:00,
2013-02-15 13:32:00,55.0,41.0,-100.00,West,279,0.0,3.0,58,0.00,,,0.00,,2013-02-15 19:32:00,
2013-02-15 13:41:00,55.0,41.0,-100.00,West,279,0.0,3.0,58,0.00,,,0.00,,2013-02-15 19:41:00,
2013-02-15 13:52:00,56.0,41.0,29.74,NNE,30,1.0,6.0,57,0.00,,,0.00,,2013-02-15 19:52:00,
2013-02-15 14:01:00,53.0,39.0,29.88,West,269,1.0,6.0,59,0.00,,,0.00,,2013-02-15 20:01:00,
2013-02-15 14:11:00,53.0,39.0,29.88,West,269,1.0,6.0,59,0.00,,,0.00,,2013-02-15 20:11:00,
2013-02-15 14:21:00,52.0,39.0,-100.00,NE,38,0.0,3.0,60,0.00,,,0.00,,2013-02-15 20:21:00,
2013-02-15 14:32:00,51.0,37.0,-100.00,SE,144,0.0,6.0,59,0.00,,,0.00,,2013-02-15 20:32:00,
2013-02-15 14:42:00,51.0,37.0,-100.00,SE,144,0.0,6.0,59,0.00,,,0.00,,2013-02-15 20:42:00,
2013-02-15 14:52:00,51.0,38.0,-100.00,SW,215,1.0,3.0,60,0.00,,,0.00,,2013-02-15 20:52:00,
2013-02-15 15:01:00,50.0,36.0,-100.00,SSW,194,1.0,5.0,59,0.00,,,0.00,,2013-02-15 21:01:00,
2013-02-15 15:11:00,50.0,36.0,-100.00,SSW,194,1.0,5.0,59,0.00,,,0.00,,2013-02-15 21:11:00,
2013-02-15 15:21:00,50.0,37.0,10.78,WSW,243,0.0,4.0,60,0.00,,,0.00,,2013-02-15 21:21:00,
2013-02-15 15:31:00,50.0,37.0,-100.00,West,268,0.0,6.0,60,0.00,,,0.00,,2013-02-15 21:31:00,
2013-02-15 15:42:00,50.0,37.0,-100.00,West,268,0.0,6.0,60,0.00,,,0.00,,2013-02-15 21:42:00,
2013-02-15 15:52:00,50.0,37.0,10.16,West,259,0.0,6.0,60,0.00,,,0.00,,2013-02-15 21:52:00,
2013-02-15 16:02:00,49.0,36.0,-100.00,West,269,0.0,6.0,60,0.00,,,0.00,,2013-02-15 22:02:00,
2013-02-15 16:11:00,49.0,36.0,-100.00,West,269,0.0,6.0,60,0.00,,,0.00,,2013-02-15 22:11:00,
2013-02-15 16:21:00,49.0,36.0,3.31,ENE,60,1.0,3.0,61,0.00,,,0.00,,2013-02-15 22:21:00,
2013-02-15 16:31:00,49.0,37.0,10.74,NNW,327,0.0,3.0,63,0.00,,,0.00,,2013-02-15 22:31:00,
2013-02-15 16:41:00,49.0,37.0,10.74,NNW,327,0.0,3.0,63,0.00,,,0.00,,2013-02-15 22:41:00,
2013-02-15 16:52:00,49.0,37.0,29.31,North,360,0.0,4.0,63,0.00,,,0.00,,2013-02-15 22:52:00,
2013-02-15 17:02:00,49.0,37.0,6.19,North,5,0.0,6.0,64,0.00,,,0.00,,2013-02-15 23:02:00,
2013-02-15 17:11:00,49.0,37.0,6.19,North,5,0.0,6.0,64,0.00,,,0.00,,2013-02-15 23:11:00,
2013-02-15 17:21:00,48.0,36.0,-100.00,ESE,115,0.0,1.0,64,0.00,,,0.00,,2013-02-15 23:21:00,
2013-02-15 17:31:00,47.0,36.0,-100.00,South,182,0.0,1.0,65,0.00,,,0.00,,2013-02-15 23:31:00,
2013-02-15 17:42:00,47.0,36.0,-100.00,South,182,0.0,1.0,65,0.00,,,0.00,,2013-02-15 23:42:00,
2013-02-15 17:52:00,47.0,36.0,-100.00,South,182,0.0,2.0,66,0.00,,,0.00,,2013-02-15 23:52:00,
2013-02-15 18:02:00,46.0,36.0,-100.00,South,182,0.0,0.0,67,0.00,,,0.00,,2013-02-16 00:02:00,
2013-02-15 18:11:00,46.0,36.0,-100.00,South,182,0.0,0.0,67,0.00,,,0.00,,2013-02-16 00:11:00,
2013-02-15 18:21:00,44.0,35.0,-100.00,South,182,0.0,0.0,70,0.00,,,0.00,,2013-02-16 00:21:00,
2013-02-15 18:32:00,44.0,36.0,-100.00,South,182,0.0,0.0,72,0.00,,,0.00,,2013-02-16 00:32:00,
2013-02-15 18:41:00,44.0,36.0,-100.00,South,182,0.0,0.0,72,0.00,,,0.00,,2013-02-16 00:41:00,
2013-02-15 18:52:00,43.0,35.0,25.31,South,182,0.0,0.0,73,0.00,,,0.00,,2013-02-16 00:52:00,
2013-02-15 19:02:00,42.0,34.0,3.30,South,182,0.0,0.0,74,0.00,,,0.00,,2013-02-16 01:02:00,
2013-02-15 19:11:00,42.0,34.0,3.30,South,182,0.0,0.0,74,0.00,,,0.00,,2013-02-16 01:11:00,
2013-02-15 19:21:00,42.0,35.0,3.30,South,182,0.0,0.0,75,0.00,,,0.00,,2013-02-16 01:21:00,
2013-02-15 19:31:00,41.0,34.0,-100.00,South,182,0.0,0.0,75,0.00,,,0.00,,2013-02-16 01:31:00,
2013-02-15 19:41:00,41.0,34.0,-100.00,South,182,0.0,0.0,75,0.00,,,0.00,,2013-02-16 01:41:00,
2013-02-15 19:52:00,41.0,34.0,3.40,South,182,0.0,0.0,76,0.00,,,0.00,,2013-02-16 01:52:00,
2013-02-15 20:01:00,40.0,34.0,9.57,South,182,0.0,0.0,78,0.00,,,0.00,,2013-02-16 02:01:00,
2013-02-15 20:11:00,40.0,34.0,9.57,South,182,0.0,0.0,78,0.00,,,0.00,,2013-02-16 02:11:00,
2013-02-15 20:21:00,40.0,34.0,-100.00,South,182,0.0,0.0,79,0.00,,,0.00,,2013-02-16 02:21:00,
2013-02-15 20:31:00,39.0,34.0,23.35,West,264,1.0,3.0,81,0.00,,,0.00,,2013-02-16 02:31:00,
2013-02-15 20:42:00,39.0,34.0,23.35,West,264,1.0,3.0,81,0.00,,,0.00,,2013-02-16 02:42:00,
2013-02-15 20:52:00,40.0,34.0,-100.00,ENE,61,1.0,7.0,78,0.00,,,0.00,,2013-02-16 02:52:00,
2013-02-15 21:01:00,40.0,32.0,-100.00,NE,38,1.0,5.0,73,0.00,,,0.00,,2013-02-16 03:01:00,
2013-02-15 21:11:00,40.0,32.0,-100.00,NE,38,1.0,5.0,73,0.00,,,0.00,,2013-02-16 03:11:00,
2013-02-15 21:21:00,40.0,32.0,-100.00,NE,41,0.0,3.0,73,0.00,,,0.00,,2013-02-16 03:21:00,
2013-02-15 21:32:00,40.0,32.0,-100.00,NNW,331,1.0,7.0,72,0.00,,,0.00,,2013-02-16 03:32:00,
2013-02-15 21:41:00,40.0,32.0,-100.00,NNW,331,1.0,7.0,72,0.00,,,0.00,,2013-02-16 03:41:00,
2013-02-15 21:52:00,40.0,31.0,-100.00,NE,52,0.0,8.0,71,0.00,,,0.00,,2013-02-16 03:52:00,
2013-02-15 22:01:00,39.0,30.0,-100.00,ENE,59,0.0,3.0,71,0.00,,,0.00,,2013-02-16 04:01:00,
2013-02-15 22:11:00,39.0,31.0,-100.00,NNW,334,1.0,3.0,73,0.00,,,0.00,,2013-02-16 04:11:00,
2013-02-15 22:21:00,39.0,31.0,-100.00,NNW,334,1.0,3.0,73,0.00,,,0.00,,2013-02-16 04:21:00,
2013-02-15 22:32:00,39.0,31.0,-100.00,NNE,17,0.0,3.0,74,0.00,,,0.00,,2013-02-16 04:32:00,
2013-02-15 22:41:00,39.0,31.0,-100.00,NNE,17,0.0,3.0,74,0.00,,,0.00,,2013-02-16 04:41:00,
2013-02-15 22:52:00,38.0,30.0,-100.00,NE,40,0.0,5.0,73,0.00,,,0.00,,2013-02-16 04:52:00,
2013-02-15 23:01:00,38.0,31.0,-100.00,North,355,1.0,4.0,75,0.00,,,0.00,,2013-02-16 05:01:00,
2013-02-15 23:12:00,38.0,31.0,-100.00,North,355,1.0,4.0,75,0.00,,,0.00,,2013-02-16 05:12:00,
2013-02-15 23:22:00,37.0,30.0,17.70,NNE,32,0.0,3.0,75,0.00,,,0.00,,2013-02-16 05:22:00,
2013-02-15 23:32:00,37.0,29.0,15.19,NNW,335,0.0,5.0,74,0.00,,,0.00,,2013-02-16 05:32:00,
2013-02-15 23:42:00,37.0,29.0,15.19,NNW,335,0.0,5.0,74,0.00,,,0.00,,2013-02-16 05:42:00,
2013-02-15 23:52:00,36.0,28.0,-100.00,NNE,27,0.0,3.0,73,0.00,,,0.00,,2013-02-16 05:52:00,